Weather History for Hillsdale, MI

Change the Weather History Date:

Saturday, March 8, 2014

  Actual Average Record
Temperature  
Mean Temperature 34 °F -  
Max Temperature 41 °F 41 °F 71 °F (1987)
Min Temperature 27 °F 20 °F -5 °F (1960)
Degree Days  
Heating Degree Days 30    
Moisture  
Dew Point 28 °F    
Average Humidity 83    
Maximum Humidity 96    
Minimum Humidity 62    
Precipitation  
Precipitation 0.00 in - - ()
Sea Level Pressure  
Sea Level Pressure 30.03 in    
Wind  
Wind Speed 8 mph (NNW)    
Max Wind Speed 14 mph    
Max Gust Speed -    
Visibility 5 miles    
Events Rain , Snow    
Averages and records for this station are not official NWS values.
T = Trace of Precipitation, MM = Missing Value Source: NWS Daily Summary

Daily Weather History Graph

Daily Weather History Graph

Search for Another Location

Airport:

Trip Planner

Search our weather history database for the weather conditions in past years. The results will help you decide how hot, cold, wet, or windy it might be!

Date:

Astronomy

Mar. 08, 2014 Rise Set
Actual Time 7:01 AM EST 6:36 PM EST
Civil Twilight 6:34 AM EST 7:04 PM EST
Nautical Twilight 6:01 AM EST 7:37 PM EST
Astronomical Twilight 5:29 AM EST 8:09 PM EST
Moon 11:36 AM EST (3/8) 1:39 AM EST (3/8)
Length of Visible Light 12h 30m
Length of Day
11h 34m
First Quarter, 51% of the Moon is Illuminated
Mar 8
First Quarter
Mar 16
Full
Mar 23
Last Quarter
Mar 30
New
Apr 7
First Quarter

Hourly Weather History & Observations

Time (EST) Temp. Windchill Dew Point Humidity Pressure Visibility Wind Dir Wind Speed Gust Speed Precip Events Conditions
12:15 AM 41.0 °F 35.8 °F 28.8 °F 62% 29.90 in 10.0 mi West 8.1 mph - N/A   Mostly Cloudy
12:35 AM 40.6 °F 33.8 °F 28.8 °F 63% 29.91 in 10.0 mi West 11.5 mph - N/A   Mostly Cloudy
12:54 AM 40.3 °F 34.4 °F 28.6 °F 63% 29.91 in 10.0 mi WNW 9.2 mph - N/A   Mostly Cloudy
1:15 AM 39.7 °F 33.2 °F 28.6 °F 64% 29.91 in 10.0 mi WNW 10.4 mph - N/A   Overcast
1:35 AM 39.0 °F 32.8 °F 28.9 °F 67% 29.91 in 7.0 mi NW 9.2 mph - N/A Rain Light Rain
1:54 AM 37.9 °F 32.1 °F 30.0 °F 73% 29.92 in 5.0 mi WNW 8.1 mph - N/A Rain Rain
2:15 AM 36.9 °F 32.2 °F 32.4 °F 84% 29.91 in 4.0 mi NW 5.8 mph - N/A Rain Light Rain
2:34 AM 36.3 °F 30.8 °F 33.3 °F 89% 29.90 in 4.0 mi NW 6.9 mph - N/A Rain Light Rain
2:54 AM 36.0 °F 31.1 °F 33.6 °F 91% 29.91 in 4.0 mi NW 5.8 mph - N/A Rain Rain
3:14 AM 36.0 °F 31.1 °F 33.8 °F 92% 29.91 in 4.0 mi NW 5.8 mph - N/A Rain Light Rain
3:34 AM 36.0 °F 31.1 °F 34.2 °F 93% 29.92 in 4.0 mi NW 5.8 mph - N/A   Mostly Cloudy
3:55 AM 35.4 °F 30.5 °F 34.0 °F 94% 29.92 in 3.0 mi NW 5.8 mph - N/A   Clear
4:14 AM 35.4 °F 29.0 °F 33.8 °F 94% 29.93 in 4.0 mi NW 8.1 mph - N/A   Scattered Clouds
4:34 AM 35.4 °F 29.7 °F 33.6 °F 93% 29.93 in 4.0 mi NNW 6.9 mph - N/A   Mostly Cloudy
4:55 AM 35.4 °F 29.0 °F 33.4 °F 92% 29.93 in 4.0 mi NW 8.1 mph - N/A   Overcast
5:14 AM 35.2 °F 28.8 °F 33.3 °F 92% 29.93 in 4.0 mi NNW 8.1 mph - N/A   Overcast
5:35 AM 35.2 °F 28.8 °F 33.1 °F 92% 29.94 in 4.0 mi NNW 8.1 mph - N/A   Overcast
5:54 AM 35.1 °F 30.1 °F 32.5 °F 91% 29.95 in 4.0 mi NNW 5.8 mph - N/A   Overcast
6:14 AM 35.1 °F 29.3 °F 32.5 °F 91% 29.96 in 4.0 mi NNW 6.9 mph - N/A   Overcast
6:35 AM 34.9 °F 29.0 °F 32.4 °F 91% 29.97 in 4.0 mi North 6.9 mph - N/A   Overcast
6:54 AM 34.3 °F 27.7 °F 32.0 °F 91% 29.98 in 4.0 mi North 8.1 mph - N/A   Overcast
7:14 AM 34.3 °F 27.7 °F 31.8 °F 90% 29.98 in 2.5 mi North 8.1 mph - N/A   Overcast
7:35 AM 34.0 °F 28.0 °F 32.0 °F 92% 29.99 in 2.0 mi North 6.9 mph - N/A   Overcast
7:54 AM 33.3 °F 26.4 °F 31.6 °F 94% 30.00 in 1.8 mi North 8.1 mph - N/A Snow Light Snow
8:14 AM 33.3 °F 26.4 °F 31.8 °F 94% 30.01 in 1.8 mi North 8.1 mph - N/A Snow Light Snow
8:35 AM 32.5 °F 24.2 °F 30.4 °F 92% 30.02 in 1.8 mi North 10.4 mph - N/A Snow Light Snow
8:54 AM 32.4 °F 26.0 °F 29.7 °F 90% 30.03 in 2.0 mi North 6.9 mph - N/A Snow Light Snow
9:15 AM 32.4 °F 25.3 °F 29.7 °F 90% 30.03 in 2.0 mi North 8.1 mph - N/A Snow Light Snow
9:35 AM 32.2 °F 25.0 °F 30.6 °F 94% 30.04 in 1.2 mi North 8.1 mph - N/A Snow Light Snow
9:54 AM 32.0 °F 24.8 °F 30.7 °F 95% 30.04 in 1.0 mi North 8.1 mph - N/A Snow Light Snow
10:15 AM 31.5 °F 25.8 °F 30.4 °F 96% 30.05 in 0.8 mi North 5.8 mph - N/A Snow Light Snow
10:34 AM 31.6 °F 27.0 °F 30.7 °F 96% 30.05 in 0.5 mi North 4.6 mph - N/A Snow Light Snow
10:54 AM 31.8 °F 27.3 °F 30.9 °F 96% 30.06 in 1.2 mi North 4.6 mph - N/A Snow Light Snow
11:15 AM 31.8 °F 24.6 °F 30.6 °F 95% 30.06 in 1.0 mi North 8.1 mph - N/A Snow Light Snow
11:34 AM 31.8 °F 25.4 °F 29.8 °F 92% 30.06 in 1.5 mi NNE 6.9 mph - N/A Snow Light Snow
11:54 AM 32.2 °F 25.8 °F 29.5 °F 90% 30.05 in 1.8 mi NNE 6.9 mph - N/A Snow Light Snow
12:15 PM 32.2 °F 25.0 °F 28.9 °F 88% 30.06 in 1.2 mi NNE 8.1 mph - N/A Snow Light Snow
12:34 PM 32.4 °F 26.0 °F 28.6 °F 86% 30.06 in 1.8 mi NNE 6.9 mph - N/A Snow Light Snow
12:54 PM 32.4 °F 26.0 °F 28.0 °F 84% 30.06 in 4.0 mi North 6.9 mph - N/A Snow Light Snow
1:15 PM 32.5 °F 24.8 °F 27.5 °F 82% 30.06 in 5.0 mi North 9.2 mph - N/A   Haze
1:34 PM 32.4 °F 25.3 °F 26.8 °F 80% 30.06 in 5.0 mi North 8.1 mph - N/A   Haze
1:54 PM 32.4 °F 26.0 °F 26.6 °F 79% 30.06 in 5.0 mi North 6.9 mph - N/A   Haze
2:15 PM 32.2 °F 25.8 °F 26.4 °F 79% 30.06 in 5.0 mi North 6.9 mph - N/A   Haze
2:34 PM 32.2 °F 25.8 °F 26.8 °F 80% 30.05 in 4.0 mi North 6.9 mph - N/A Snow Light Snow
2:55 PM 31.8 °F 25.4 °F 27.0 °F 82% 30.05 in 5.0 mi North 6.9 mph - N/A   Haze
3:14 PM 31.8 °F 25.4 °F 26.8 °F 82% 30.06 in 5.0 mi North 6.9 mph - N/A   Haze
3:35 PM 31.5 °F 24.9 °F 26.4 °F 82% 30.07 in 5.0 mi North 6.9 mph - N/A   Overcast
3:54 PM 30.7 °F 22.6 °F 26.2 °F 83% 30.07 in 5.0 mi North 9.2 mph - N/A   Haze
4:14 PM 30.4 °F 22.2 °F 25.9 °F 83% 30.07 in 4.0 mi North 9.2 mph - N/A   Overcast
4:35 PM 30.4 °F 23.6 °F 25.9 °F 83% 30.07 in 4.0 mi North 6.9 mph - N/A   Overcast
4:54 PM 30.4 °F 24.5 °F 25.5 °F 82% 30.07 in 5.0 mi North 5.8 mph - N/A   Overcast
5:15 PM 30.4 °F 24.5 °F 25.2 °F 81% 30.08 in 5.0 mi NNW 5.8 mph - N/A   Haze
5:34 PM 30.4 °F 24.5 °F 24.8 °F 80% 30.09 in 7.0 mi North 5.8 mph - N/A   Overcast
5:55 PM 29.8 °F 24.9 °F 24.4 °F 80% 30.09 in 7.0 mi NNW 4.6 mph - N/A   Overcast
6:15 PM 29.8 °F 22.2 °F 24.6 °F 81% 30.10 in 7.0 mi NNW 8.1 mph - N/A   Overcast
6:34 PM 29.7 °F 21.3 °F 25.0 °F 83% 30.10 in 5.0 mi NNW 9.2 mph - N/A   Haze
6:55 PM 29.7 °F 22.0 °F 25.0 °F 83% 30.10 in 7.0 mi NNW 8.1 mph - N/A   Overcast
7:14 PM 29.3 °F 23.2 °F 24.8 °F 83% 30.11 in 7.0 mi NNW 5.8 mph - N/A   Overcast
7:34 PM 29.1 °F 21.3 °F 24.4 °F 83% 30.12 in 7.0 mi NNW 8.1 mph - N/A   Overcast
7:55 PM 29.1 °F 24.1 °F 23.4 °F 79% 30.11 in 7.0 mi NNW 4.6 mph - N/A   Overcast
8:14 PM 29.1 °F 25.4 °F 23.0 °F 78% 30.12 in 7.0 mi NW 3.5 mph - N/A   Overcast
8:35 PM 28.9 °F 25.2 °F 23.4 °F 80% 30.12 in 7.0 mi NW 3.5 mph - N/A   Overcast
8:54 PM 29.1 °F 23.0 °F 23.0 °F 78% 30.13 in 7.0 mi NNW 5.8 mph - N/A   Overcast
9:14 PM 29.1 °F 24.1 °F 22.8 °F 77% 30.13 in 10.0 mi NW 4.6 mph - N/A   Overcast
9:35 PM 29.3 °F 23.2 °F 21.6 °F 73% 30.14 in 10.0 mi NW 5.8 mph - N/A   Overcast
9:54 PM 29.1 °F 23.0 °F 21.6 °F 73% 30.14 in 10.0 mi NW 5.8 mph - N/A   Overcast
10:14 PM 29.1 °F 23.0 °F 22.3 °F 76% 30.15 in 10.0 mi NW 5.8 mph - N/A   Overcast
10:35 PM 29.1 °F 20.0 °F 21.2 °F 72% 30.15 in 10.0 mi WNW 10.4 mph - N/A   Overcast
10:54 PM 28.9 °F 18.6 °F 19.4 °F 68% 30.14 in 10.0 mi NW 12.7 mph - N/A   Overcast
11:14 PM 28.8 °F 19.0 °F 19.2 °F 68% 30.14 in 10.0 mi NW 11.5 mph - N/A   Overcast
11:35 PM 28.0 °F 18.6 °F 19.4 °F 70% 30.15 in 10.0 mi WNW 10.4 mph - N/A   Overcast
11:54 PM 27.5 °F 16.3 °F 19.6 °F 72% 30.15 in 10.0 mi WNW 13.8 mph - N/A   Overcast